GW7201 Weather Reports


time (UTC)temp
C
wind
direction
speed
KPH
gust
KPH
rain 1hr
cm
rain 24hr
cm
rain mn
cm
humidity
%
barometer
mb
20260906022209 23 70 0.0 0.0 0.00 0.00 0.00 93 1013.0
20260906021705 23 136 0.0 0.0 0.00 0.00 0.00 93 1012.9
20260906021204 23 321 0.0 1.6 0.00 0.00 0.00 92 1013.0
20260906020659 23 283 0.0 0.0 0.00 0.00 0.00 91 1012.5
20260906020154 23 77 0.0 0.0 0.00 0.00 0.00 91 1012.6
20260906015654 23 33 0.0 0.0 0.00 0.00 0.00 90 1012.5
20260906015153 23 68 0.0 0.0 0.00 0.00 0.00 90 1012.4
20260906014652 23 121 0.0 0.0 0.00 0.00 0.00 91 1012.5
20260906014149 23 89 0.0 0.0 0.00 0.00 0.00 91 1012.6
20260906013644 23 266 1.6 3.2 0.00 0.00 0.00 90 1012.7
20260906013139 23 105 0.0 0.0 0.00 0.00 0.00 90 1012.7
20260906012640 23 109 0.0 0.0 0.00 0.00 0.00 90 1012.4
20260906012139 23 241 0.0 0.0 0.00 0.00 0.00 90 1012.4
20260906011636 24 241 0.0 0.0 0.00 0.00 0.00 90 1012.0
20260906011130 24 242 0.0 0.0 0.00 0.00 0.00 90 1012.2
20260906010626 24 242 0.0 0.0 0.00 0.00 0.00 90 1012.0
20260906010122 24 241 0.0 0.0 0.00 0.00 0.00 90 1012.2
20260906005621 25 241 0.0 0.0 0.00 0.00 0.00 89 1011.7
20260906005121 25 242 0.0 0.0 0.00 0.00 0.00 89 1011.8
20260906004620 25 110 0.0 0.0 0.00 0.00 0.00 88 1012.1
20260906004115 25 169 0.0 0.0 0.00 0.00 0.00 89 1011.8
20260906003610 25 191 0.0 0.0 0.00 0.00 0.00 88 1012.1
20260906003107 25 173 0.0 0.0 0.00 0.00 0.00 87 1012.0
20260906002606 26 173 0.0 0.0 0.00 0.00 0.00 87 1012.0
20260906002101 26 191 0.0 0.0 0.00 0.00 0.00 86 1012.1
20260906001557 26 213 0.0 0.0 0.00 0.00 0.00 86 1012.1
20260906001057 26 181 0.0 0.0 0.00 0.00 0.00 85 1012.2
20260906000553 26 238 0.0 0.0 0.00 0.00 0.00 85 1012.3
20260906000048 27 178 0.0 0.0 0.00 0.00 0.00 84 1012.6
20260905235547 27 282 0.0 0.0 0.00 0.00 0.00 83 1012.5
20260905235042 27 218 0.0 0.0 0.00 0.00 0.00 82 1012.5
20260905234537 27 181 0.0 0.0 0.00 0.00 0.00 81 1012.5
20260905234033 28 191 0.0 0.0 0.00 0.00 0.00 81 1012.6
20260905233532 28 217 0.0 0.0 0.00 0.00 0.00 80 1012.6
20260905233032 28 257 0.0 0.0 0.00 0.00 0.00 79 1012.4
20260905232528 29 186 0.0 0.0 0.00 0.00 0.00 78 1012.7
20260905232024 29 220 0.0 0.0 0.00 0.00 0.00 76 1012.8
20260905231519 30 271 0.0 1.6 0.00 0.00 0.00 74 1012.7
20260905231015 30 158 0.0 0.0 0.00 0.00 0.00 72 1012.6
20260905230514 30 111 0.0 0.0 0.00 0.00 0.00 70 1012.5
20260905230012 31 322 0.0 0.0 0.00 0.00 0.00 71 1012.5
20260905225507 31 322 0.0 0.0 0.00 0.00 0.00 66 1012.4
20260905225002 32 322 0.0 0.0 0.00 0.00 0.00 66 1012.4
20260905224457 32 322 0.0 0.0 0.00 0.00 0.00 66 1012.4
20260905223956 33 123 0.0 0.0 0.00 0.00 0.00 57 1012.6
20260905223454 33 101 0.0 0.0 0.00 0.00 0.00 56 1012.5
20260905222950 33 62 0.0 1.6 0.00 0.00 0.00 54 1012.4
20260905222449 33 57 3.2 3.2 0.00 0.00 0.00 52 1012.5
20260905221945 33 31 3.2 4.8 0.00 0.00 0.00 52 1012.4
20260905221441 33 351 1.6 1.6 0.00 0.00 0.00 52 1012.4
20260905220937 33 331 3.2 6.4 0.00 0.00 0.00 52 1012.3
20260905220433 33 282 3.2 4.8 0.00 0.00 0.00 52 1012.6
20260905215932 34 60 3.2 4.8 0.00 0.00 0.00 50 1012.5
20260905215428 34 291 3.2 3.2 0.00 0.00 0.00 52 1012.4
20260905214924 34 1 3.2 9.7 0.00 0.00 0.00 49 1012.3
20260905214420 34 257 1.6 4.8 0.00 0.00 0.00 50 1012.4
20260905213920 34 285 3.2 4.8 0.00 0.00 0.00 50 1012.0
20260905213416 34 235 4.8 4.8 0.00 0.00 0.00 49 1012.1
20260905212911 34 303 3.2 6.4 0.00 0.00 0.00 49 1012.4
20260905212406 34 316 3.2 4.8 0.00 0.00 0.00 51 1012.3
20260905211905 34 307 1.6 1.6 0.00 0.00 0.00 51 1012.4
20260905211401 34 251 3.2 4.8 0.00 0.00 0.00 48 1012.2
20260905210857 34 349 1.6 4.8 0.00 0.00 0.00 47 1012.6
20260905210357 34 307 6.4 6.4 0.00 0.00 0.00 48 1012.3
20260905205856 34 235 8.0 11.3 0.00 0.00 0.00 48 1012.4
20260905205351 35 271 4.8 6.4 0.00 0.00 0.00 47 1012.5
20260905204850 34 320 6.4 6.4 0.00 0.00 0.00 47 1012.4
20260905204346 33 359 1.6 6.4 0.00 0.00 0.00 49 1012.4
20260905203845 33 306 4.8 9.7 0.00 0.00 0.00 50 1012.5
20260905203341 34 314 8.0 11.3 0.00 0.00 0.00 48 1012.4
20260905202836 34 105 3.2 3.2 0.00 0.00 0.00 47 1012.6
20260905202331 34 172 3.2 4.8 0.00 0.00 0.00 48 1012.9
20260905201827 34 272 3.2 9.7 0.00 0.00 0.00 47 1012.8
20260905201322 35 285 3.2 9.7 0.00 0.00 0.00 47 1012.8
20260905200822 35 281 1.6 3.2 0.00 0.00 0.00 46 1012.6
20260905200318 35 211 6.4 6.4 0.00 0.00 0.00 46 1013.0
20260905195816 34 269 3.2 3.2 0.00 0.00 0.00 47 1013.1
20260905195311 35 301 3.2 6.4 0.00 0.00 0.00 46 1013.0
20260905194807 34 126 0.0 3.2 0.00 0.00 0.00 46 1012.9
20260905194307 34 193 4.8 9.7 0.00 0.00 0.00 46 1013.2
20260905193806 34 208 1.6 3.2 0.00 0.00 0.00 50 1013.2
20260905193301 34 229 3.2 6.4 0.00 0.00 0.00 46 1013.4
20260905192756 34 252 3.2 6.4 0.00 0.00 0.00 50 1013.4
20260905192253 35 293 4.8 4.8 0.00 0.00 0.00 49 1013.4
20260905191751 34 204 1.6 3.2 0.00 0.00 0.00 49 1013.4
20260905191250 33 279 1.6 4.8 0.00 0.00 0.00 51 1013.5
20260905190749 34 230 3.2 6.4 0.00 0.00 0.00 46 1013.6
20260905190249 34 199 4.8 6.4 0.00 0.00 0.00 45 1013.8
20260905185748 34 274 3.2 4.8 0.00 0.00 0.00 50 1013.5
20260905185243 35 190 1.6 1.6 0.00 0.00 0.00 45 1013.7
20260905184742 34 173 0.0 1.6 0.00 0.00 0.00 49 1013.8
20260905184241 33 245 0.0 1.6 0.00 0.00 0.00 52 1013.8
20260905183741 33 225 3.2 4.8 0.00 0.00 0.00 45 1014.1
20260905183237 33 85 4.8 4.8 0.00 0.00 0.00 48 1013.9
20260905182730 33 68 1.6 3.2 0.00 0.00 0.00 48 1014.1
20260905182230 33 168 1.6 3.2 0.00 0.00 0.00 46 1014.1
20260905181726 33 101 3.2 3.2 0.00 0.00 0.00 45 1014.4
20260905181224 33 163 1.6 3.2 0.00 0.00 0.00 51 1014.4
20260905180719 32 161 4.8 4.8 0.00 0.00 0.00 50 1014.3
20260905180215 32 191 4.8 11.3 0.00 0.00 0.00 51 1014.4
20260905175715 32 234 4.8 6.4 0.00 0.00 0.00 49 1014.3
20260905175209 32 197 4.8 6.4 0.00 0.00 0.00 50 1014.3
20260905174705 32 189 6.4 6.4 0.00 0.00 0.00 50 1014.6
20260905174200 33 195 4.8 4.8 0.00 0.00 0.00 49 1014.7
20260905173656 32 194 0.0 4.8 0.00 0.00 0.00 51 1014.7
20260905173151 32 106 1.6 4.8 0.00 0.00 0.00 48 1014.7
20260905172651 32 238 1.6 6.4 0.00 0.00 0.00 51 1014.7
20260905172145 32 48 1.6 1.6 0.00 0.00 0.00 52 1014.9
20260905171641 31 208 6.4 6.4 0.00 0.00 0.00 51 1015.0
20260905171137 31 94 1.6 6.4 0.00 0.00 0.00 55 1014.9
20260905170634 31 185 4.8 9.7 0.00 0.00 0.00 53 1015.0
20260905170129 31 182 4.8 4.8 0.00 0.00 0.00 54 1015.1
20260905165628 31 79 1.6 1.6 0.00 0.00 0.00 51 1015.0
20260905165124 31 147 4.8 6.4 0.00 0.00 0.00 54 1015.1
20260905164619 31 199 1.6 3.2 0.00 0.00 0.00 57 1015.3
20260905164118 31 182 4.8 6.4 0.00 0.00 0.00 52 1015.2
20260905163615 31 119 1.6 1.6 0.00 0.00 0.00 54 1015.3
20260905163111 31 206 3.2 4.8 0.00 0.00 0.00 55 1015.4
20260905162607 31 80 3.2 6.4 0.00 0.00 0.00 55 1015.1
20260905162106 31 106 1.6 3.2 0.00 0.00 0.00 57 1015.3
20260905161606 30 164 3.2 6.4 0.00 0.00 0.00 56 1015.2
20260905161104 30 156 0.0 1.6 0.00 0.00 0.00 58 1014.9
20260905160602 30 180 3.2 3.2 0.00 0.00 0.00 58 1015.3
20260905155557 30 93 1.6 6.4 0.00 0.00 0.00 58 1015.4
20260905155056 30 178 8.0 9.7 0.00 0.00 0.00 59 1015.5
20260905154551 30 168 1.6 4.8 0.00 0.00 0.00 60 1015.5
20260905154046 29 93 0.0 6.4 0.00 0.00 0.00 62 1015.6
20260905153542 30 176 8.0 11.3 0.00 0.00 0.00 60 1015.8
20260905153042 29 224 3.2 4.8 0.00 0.00 0.00 60 1015.8
20260905152537 30 89 1.6 9.7 0.00 0.00 0.00 58 1015.8
20260905152032 29 201 3.2 6.4 0.00 0.00 0.00 60 1015.8
20260905151527 28 246 3.2 4.8 0.00 0.00 0.00 61 1016.2
20260905151022 28 157 8.0 12.9 0.00 0.00 0.00 60 1016.1
20260905150518 28 98 6.4 6.4 0.00 0.00 0.00 63 1016.1
20260905150015 28 69 1.6 6.4 0.00 0.00 0.00 63 1015.8
20260905145509 28 77 4.8 9.7 0.00 0.00 0.00 61 1015.9
20260905145008 28 146 1.6 4.8 0.00 0.00 0.00 59 1016.2
20260905144504 28 230 1.6 1.6 0.00 0.00 0.00 62 1016.1
20260905144003 27 80 6.4 6.4 0.00 0.00 0.00 64 1015.8
20260905143501 27 87 3.2 3.2 0.00 0.00 0.00 66 1015.9
20260905142956 26 94 3.2 3.2 0.00 0.00 0.00 70 1016.0
20260905142455 26 78 1.6 6.4 0.00 0.00 0.00 69 1016.2
20260905141951 26 92 3.2 4.8 0.00 0.00 0.00 69 1016.4
20260905141445 26 343 0.0 6.4 0.00 0.00 0.00 71 1016.3
20260905140942 26 104 4.8 9.7 0.00 0.00 0.00 72 1016.2
20260905140437 25 74 4.8 9.7 0.00 0.00 0.00 74 1016.1
20260905135936 25 60 3.2 11.3 0.00 0.00 0.00 74 1016.2
20260905135432 25 102 3.2 6.4 0.00 0.00 0.00 77 1016.4
20260905134927 25 36 3.2 6.4 0.00 0.00 0.00 78 1016.2
20260905134426 24 79 6.4 11.3 0.00 0.00 0.00 79 1016.4
20260905133920 23 91 1.6 4.8 0.00 0.00 0.00 82 1016.2
20260905133420 23 134 1.6 6.4 0.00 0.00 0.00 83 1016.4
20260905132920 22 61 6.4 9.7 0.00 0.00 0.00 83 1016.5
20260905132415 22 53 3.2 6.4 0.00 0.00 0.00 85 1016.6
20260905131910 22 84 6.4 6.4 0.00 0.00 0.00 85 1016.7
20260905131407 22 83 3.2 14.5 0.00 0.00 0.00 85 1016.7
20260905130906 22 254 1.6 11.3 0.00 0.00 0.00 83 1016.7
20260905130406 22 68 3.2 11.3 0.00 0.00 0.00 81 1016.8
20260905125901 23 41 8.0 12.9 0.00 0.00 0.00 80 1016.8
20260905125355 23 271 6.4 11.3 0.00 0.00 0.00 79 1017.1
20260905124851 23 62 11.3 12.9 0.00 0.00 0.00 78 1016.9
20260905124348 23 329 4.8 17.7 0.00 0.00 0.00 76 1016.5
20260905123847 23 19 6.4 16.1 0.00 0.00 0.00 77 1016.6
20260905123344 23 29 3.2 6.4 0.00 0.00 0.00 79 1016.5
20260905122844 23 328 1.6 3.2 0.00 0.00 0.00 79 1015.8
20260905122343 23 31 4.8 6.4 0.00 0.00 0.00 79 1015.9
20260905121839 23 105 3.2 4.8 0.00 0.00 0.00 80 1015.8
20260905121335 23 156 0.0 1.6 0.00 0.00 0.00 80 1016.0
20260905120834 23 10 4.8 6.4 0.00 0.00 0.00 80 1016.0
20260905120329 23 69 1.6 4.8 0.00 0.00 0.00 81 1015.9
20260905115824 23 84 6.4 9.7 0.00 0.00 0.00 82 1016.0
20260905115323 22 41 3.2 4.8 0.00 0.00 0.00 83 1015.9
20260905114823 22 58 1.6 4.8 0.00 0.00 0.00 83 1015.8
20260905114322 23 1 3.2 11.3 0.00 0.00 0.00 83 1016.0
20260905113822 23 18 4.8 11.3 0.00 0.00 0.00 82 1015.7
20260905113318 23 45 6.4 12.9 0.00 0.00 0.00 82 1015.8
20260905112813 23 329 4.8 12.9 0.00 0.00 0.00 81 1015.3
20260905112307 23 68 6.4 9.7 0.00 0.00 0.00 80 1015.2
20260905111803 24 32 3.2 6.4 0.00 0.00 0.00 79 1015.3
20260905111257 24 349 4.8 11.3 0.00 0.00 0.00 79 1015.5
20260905110756 24 263 6.4 14.5 0.00 0.00 0.00 84 1015.4
20260905110250 23 144 4.8 25.7 0.00 0.00 0.00 92 1015.3
20260905105746 23 16 0.0 0.0 0.00 0.00 0.00 94 1014.4
20260905105245 23 135 0.0 0.0 0.00 0.00 0.00 94 1014.9
20260905104739 23 274 0.0 0.0 0.00 0.00 0.00 94 1014.8
20260905104236 23 126 0.0 0.0 0.00 0.00 0.00 94 1014.3
20260905103730 23 248 0.0 0.0 0.00 0.00 0.00 95 1014.3
20260905103226 23 69 0.0 0.0 0.00 0.00 0.00 95 1014.6
20260905102721 23 343 1.6 4.8 0.00 0.00 0.00 97 1014.6
20260905102218 23 43 1.6 4.8 0.00 0.00 0.00 98 1014.7
20260905101717 22 354 6.4 4.8 0.00 0.00 0.00 97 1014.8
20260905101215 22 43 0.0 0.0 0.00 0.00 0.00 97 1014.3
20260905100711 22 110 0.0 0.0 0.00 0.00 0.00 97 1014.1
20260905100206 22 168 0.0 0.0 0.00 0.00 0.00 97 1014.3
20260905095706 22 194 0.0 1.6 0.00 0.00 0.00 97 1014.1
20260905095201 22 156 0.0 0.0 0.00 0.00 0.00 97 1014.2
20260905094701 22 107 0.0 0.0 0.00 0.00 0.00 97 1014.0
20260905094201 22 200 0.0 0.0 0.00 0.00 0.00 97 1014.1
20260905093655 22 170 0.0 0.0 0.00 0.00 0.00 97 1013.9
20260905093151 22 168 0.0 0.0 0.00 0.00 0.00 97 1014.0
20260905092646 22 168 0.0 0.0 0.00 0.00 0.00 97 1014.0
20260905092142 22 168 0.0 0.0 0.00 0.00 0.00 97 1013.9
20260905091641 22 169 0.0 0.0 0.00 0.00 0.00 97 1013.8
20260905091141 22 171 0.0 0.0 0.00 0.00 0.00 97 1013.9
20260905090636 22 168 0.0 0.0 0.00 0.00 0.00 97 1013.8
20260905090132 22 136 0.0 0.0 0.00 0.00 0.00 97 1013.8
20260905085630 22 157 0.0 0.0 0.00 0.00 0.00 97 1013.8
20260905085126 22 122 0.0 0.0 0.00 0.00 0.00 97 1013.7
20260905084625 22 112 0.0 0.0 0.00 0.00 0.00 97 1013.8
20260905084121 22 110 0.0 0.0 0.00 0.00 0.00 97 1013.8
20260905083620 22 111 0.0 0.0 0.00 0.00 0.00 97 1013.8
20260905083117 22 160 0.0 0.0 0.00 0.00 0.00 97 1013.9
20260905082612 21 160 0.0 0.0 0.00 0.00 0.00 97 1014.0
20260905082108 21 160 0.0 0.0 0.00 0.00 0.00 97 1013.8
20260905081608 21 160 0.0 0.0 0.00 0.00 0.00 97 1013.8
20260905081102 22 159 0.0 0.0 0.00 0.00 0.00 97 1013.9
20260905080602 22 189 0.0 0.0 0.00 0.00 0.00 97 1013.9
20260905080052 22 140 0.0 0.0 0.00 0.00 0.00 97 1013.8
20260905075551 22 140 0.0 0.0 0.00 0.00 0.00 97 1013.9
20260905075050 22 113 0.0 0.0 0.00 0.00 0.00 97 1013.8
20260905074550 22 113 0.0 0.0 0.00 0.00 0.00 97 1014.0
20260905074046 22 90 0.0 0.0 0.00 0.00 0.00 97 1013.9
20260905073541 22 90 0.0 0.0 0.00 0.00 0.00 97 1014.0
20260905073037 22 118 0.0 0.0 0.00 0.00 0.00 97 1014.0
20260905072536 22 89 1.6 1.6 0.00 0.00 0.00 97 1014.2
20260905072032 22 74 1.6 0.0 0.00 0.00 0.00 97 1014.2
20260905071528 22 137 0.0 0.0 0.00 0.00 0.00 97 1014.2
20260905071028 22 138 0.0 0.0 0.00 0.00 0.00 97 1014.6
20260905070523 22 138 0.0 0.0 0.00 0.00 0.00 97 1014.2
20260905070019 22 103 0.0 0.0 0.00 0.00 0.00 97 1014.4
20260905065517 22 103 0.0 0.0 0.00 0.00 0.00 97 1014.4
20260905065012 22 179 0.0 0.0 0.00 0.00 0.00 97 1014.3
20260905064507 22 143 0.0 0.0 0.00 0.00 0.00 97 1014.6
20260905064002 22 106 0.0 0.0 0.00 0.00 0.00 97 1014.7
20260905063456 22 101 0.0 0.0 0.00 0.00 0.00 97 1014.9
20260905062953 22 84 0.0 0.0 0.00 0.00 0.00 97 1014.8
20260905062452 22 102 0.0 0.0 0.00 0.00 0.00 97 1014.9
20260905061947 22 84 0.0 0.0 0.00 0.00 0.00 96 1014.9
20260905061442 22 178 0.0 0.0 0.00 0.00 0.00 96 1014.9
20260905060941 22 227 0.0 0.0 0.00 0.00 0.00 96 1015.1
20260905060437 22 84 0.0 0.0 0.00 0.00 0.00 96 1015.0
20260905055932 22 97 0.0 0.0 0.00 0.00 0.00 96 1015.1
20260905055432 22 109 0.0 1.6 0.00 0.00 0.00 96 1015.3
20260905054931 22 85 0.0 0.0 0.00 0.00 0.00 96 1015.0
20260905054427 22 116 0.0 0.0 0.00 0.00 0.00 96 1014.9
20260905053927 22 345 0.0 0.0 0.00 0.00 0.00 96 1015.0
20260905053422 22 345 0.0 0.0 0.00 0.00 0.00 96 1015.3
20260905052917 22 325 0.0 1.6 0.00 0.00 0.00 96 1015.2
20260905052417 22 143 0.0 0.0 0.00 0.00 0.00 96 1015.3
20260905051916 22 89 0.0 0.0 0.00 0.00 0.00 96 1015.3
20260905051412 22 99 0.0 0.0 0.00 0.00 0.00 95 1015.3
20260905050909 22 184 0.0 0.0 0.00 0.00 0.00 95 1015.4
20260905050405 22 184 0.0 0.0 0.00 0.00 0.00 95 1015.3
20260905045900 22 144 0.0 0.0 0.00 0.00 0.00 95 1015.5
20260905045355 22 124 0.0 0.0 0.00 0.00 0.00 95 1015.5
20260905044851 22 123 0.0 0.0 0.00 0.00 0.00 95 1015.5
20260905044346 23 88 0.0 0.0 0.00 0.00 0.00 95 1015.4
20260905043844 23 89 0.0 0.0 0.00 0.00 0.00 95 1015.4
20260905043339 23 90 0.0 0.0 0.00 0.00 0.00 95 1015.3
20260905042834 23 78 0.0 0.0 0.00 0.00 0.00 95 1015.4
20260905042334 23 163 0.0 0.0 0.00 0.00 0.00 95 1015.3
20260905041829 23 175 0.0 0.0 0.00 0.00 0.00 95 1015.3
20260905041326 23 245 1.6 1.6 0.00 0.00 0.00 95 1015.3
20260905040826 23 174 0.0 1.6 0.00 0.00 0.00 95 1015.4
20260905040324 23 106 0.0 0.0 0.00 0.00 0.00 95 1015.5
20260905035824 23 323 0.0 0.0 0.00 0.00 0.00 95 1015.3
20260905035320 23 323 0.0 0.0 0.00 0.00 0.00 95 1015.4
20260905034817 23 323 0.0 0.0 0.00 0.00 0.00 95 1015.3
20260905034312 23 323 0.0 0.0 0.00 0.00 0.00 95 1015.2
20260905033810 23 323 0.0 0.0 0.00 0.00 0.00 95 1015.5
20260905033306 23 323 0.0 0.0 0.00 0.00 0.00 95 1015.3
20260905032805 23 323 0.0 0.0 0.00 0.00 0.00 95 1015.4
20260905032301 23 323 0.0 0.0 0.00 0.00 0.00 95 1015.5
20260905031755 23 323 0.0 0.0 0.00 0.00 0.00 94 1015.4
20260905031247 23 323 0.0 0.0 0.00 0.00 0.00 94 1015.2
20260905030746 23 323 0.0 0.0 0.00 0.00 0.00 94 1015.5
20260905030242 23 323 0.0 0.0 0.00 0.00 0.00 94 1015.3
20260905025736 23 323 0.0 0.0 0.00 0.00 0.00 94 1015.4
20260905025232 23 323 1.6 1.6 0.00 0.00 0.00 94 1015.4
20260905024727 23 323 0.0 0.0 0.00 0.00 0.00 94 1015.3
20260905024224 23 323 0.0 0.0 0.00 0.00 0.00 94 1015.2
20260905023723 23 323 0.0 0.0 0.00 0.00 0.00 94 1015.2
20260905023218 23 323 0.0 0.0 0.00 0.00 0.00 94 1015.2
20260905022717 23 323 0.0 0.0 0.00 0.00 0.00 94 1015.1